THOR AGENA D R/B, 727

Orbit data source: Space-Track

THOR AGENA D R/B, 727 is space debris in LEO originally from a launch on Sat, 11 Jan 1964 UTC via a THOR SLV-2A AGENA D launch vehicle from the Air Force Western Test Range (AFWTR). Debris objects in space refer to the collection of defunct objects orbiting the Earth. Examples of debris include non-operational satellites, rocket bodies, and fragments generated from explosions, collisions, or faulty payload assembly.

Loading next visibility...
Identifier
727, 1964-001A
Orbit
LEO
Country
Flag of USUS
Related business
Manufacturer
HRB-Singer
Mission
Spacecraft
Bus & Motor
AFTRACK, Unknown motor
Mass
~700 kg wet, 5 kg dry
Launch date (UTC)
1964-01-11 (62 years ago)
Launch vehicle
THOR SLV-2A AGENA D
Launch site
Air Force Western Test Range (AFWTR)
Object type
Payload
Rocket body
Debris
Shape & HBR
Unknown
Radar Cross Section
Large (>1 m²)

Expand to show TLE details & history
Last TLE update: 12 hours ago

TLE from 12 hours ago
0 THOR AGENA D R/B
1 00727U 64001A   25347.29864865  .00000101  00000-0  11354-3 0  9995
2 00727  69.9066 329.4730 0016688 283.5847  76.3399 13.95765473151215
Epoch: 2025-12-13T07:10Z
TLE epoch observation values (Epoch: 2025-12-13T07:10:03.243Z)
Latitude
-0.00001°
Longitude
139.73156°
Altitude
907.948 km
Speed
7.4 km/s
True Right ascension
21h 57m 53s
True Declination
0° 00' 00"
Sunlit
Object was in daylight at epoch
Visualization orbit readout
Latitude
Unknown
Longitude
Unknown
Altitude
Unknown
Speed
Unknown
Apparent Right ascension
Unknown
Apparent Declination
Unknown
Sunlit
N/A
Visualization observer readout
Local Sidereal Time
17:36:18
Azimuth
Unknown
Elevation
Unknown
Doppler factor
Unknown
Orbital elements
Apogee altitude
918.705 km
Perigee altitude
894.392 km
Semi-major axis
7,284.685 km
Eccentricity
0.00167
Inclination
69.9066°
RAAN
329.473°
Arg. of periapsis
283.5847°
True anomaly
76.52581°
Mean anomaly
76.3399°
Eccentric anomaly
76.43285°
Mean motion
3.49082 °/min
Orbital period
103.13 mins
BSTAR
0.00011354
Loading maneuver chart data...
Computing Atmospheric mass density...
Loading historical data...
Loading historical data...
Loading historical data...
Loading historical data...
Loading historical data...
Loading historical data...
Loading historical data...
Other satellites on launch #1 in the year 1964 (1964-01-11 UTC)

Documentation

Showing up to 5 results
|